2019-025C

Last updated on May 11, 2019, 12:02 a.m. UTC

1 44224U 19025C   19130.55739073  .42319615  12704-4  49549-3 0  9999
2 44224  51.6328 185.8249 0015314  75.0423 286.3853 16.48763339  1012

Satellite is not in orbit.